Location: Tusaire Observatory
(45.4516°N, 93.5392°W)
Time: 12:50:30
(UTC-05:00)

Envisat - Visible Passes

Search period start: 24 May 2018 00:00
Search period end: 03 June 2018 00:00
Orbit: 764 x 766 km, 98.2° (Epoch: 24 May)

Date Brightness Start Highest point End Pass type
(mag) Time Alt. Az. Time Alt. Az. Time Alt. Az.
24 May 5.8 22:06:20 10° WSW 22:08:25 12° W 22:10:30 10° WNW visible
25 May 5.1 21:27:01 10° SSW 21:31:16 27° W 21:35:32 10° NW visible
27 May 5.6 21:54:05 10° SW 21:57:07 16° W 22:00:09 10° NW visible
30 May 5.5 21:42:11 10° SW 21:45:50 20° W 21:49:30 10° NW visible
01 Jun 5.9 22:10:15 10° WSW 22:11:44 11° W 22:13:14 10° WNW visible
02 Jun 5.2 21:30:28 10° SSW 21:34:34 24° W 21:38:42 10° NW visible
